Time,TemperatureF,DewpointF,PressureIn,WindDirection,WindDirectionDegrees,WindSpeedMPH,WindSpeedGustMPH,Humidity,HourlyPrecipIn,Conditions,Clouds,dailyrainin,SolarRadiationWatts/m^2,SoftwareType,DateUTC
2013-11-21 00:22:00,24.0,23.0,-100.00,West,271,2.0,4.0,94,0.00,,,0.07,0.000000,,2013-11-21 07:22:00,
2013-11-21 00:33:00,24.0,23.0,-100.00,West,271,2.0,4.0,94,0.00,,,0.07,0.000000,,2013-11-21 07:33:00,
2013-11-21 00:42:00,24.0,23.0,-100.00,West,271,2.0,4.0,94,0.00,,,0.07,0.000000,,2013-11-21 07:42:00,
2013-11-21 00:52:00,24.0,23.0,-100.00,West,271,2.0,4.0,94,0.00,,,0.07,0.000000,,2013-11-21 07:52:00,
2013-11-21 01:22:00,24.0,23.0,-100.00,SW,219,1.0,3.0,94,0.00,,,0.07,0.000000,,2013-11-21 08:22:00,
2013-11-21 01:32:00,24.0,23.0,-100.00,SW,219,1.0,3.0,94,0.00,,,0.07,0.000000,,2013-11-21 08:32:00,
2013-11-21 01:42:00,24.0,23.0,-100.00,SW,219,1.0,3.0,94,0.00,,,0.07,0.000000,,2013-11-21 08:42:00,
2013-11-21 01:52:00,24.0,23.0,-100.00,SW,219,1.0,3.0,94,0.00,,,0.07,0.000000,,2013-11-21 08:52:00,
2013-11-21 02:22:00,25.0,24.0,-100.00,South,172,2.0,3.0,95,0.00,,,0.07,0.000000,,2013-11-21 09:22:00,
2013-11-21 02:33:00,25.0,24.0,-100.00,South,172,2.0,3.0,95,0.00,,,0.07,0.000000,,2013-11-21 09:33:00,
2013-11-21 02:43:00,25.0,24.0,-100.00,South,172,2.0,3.0,95,0.00,,,0.07,0.000000,,2013-11-21 09:43:00,
2013-11-21 02:53:00,25.0,24.0,-100.00,South,172,2.0,3.0,95,0.00,,,0.07,0.000000,,2013-11-21 09:53:00,
2013-11-21 03:23:00,24.0,23.0,-100.00,East,101,0.0,3.0,96,0.00,,,0.07,0.000000,,2013-11-21 10:23:00,
2013-11-21 03:33:00,24.0,23.0,-100.00,East,101,0.0,3.0,96,0.00,,,0.07,0.000000,,2013-11-21 10:33:00,
2013-11-21 03:42:00,24.0,23.0,-100.00,East,101,0.0,3.0,96,0.00,,,0.07,0.000000,,2013-11-21 10:42:00,
2013-11-21 03:53:00,24.0,23.0,-100.00,East,101,0.0,3.0,96,0.00,,,0.07,0.000000,,2013-11-21 10:53:00,
2013-11-21 04:22:00,25.0,24.0,-100.00,SE,142,3.0,6.0,96,0.00,,,0.07,0.000000,,2013-11-21 11:22:00,
2013-11-21 04:33:00,25.0,24.0,-100.00,SE,142,3.0,6.0,96,0.00,,,0.07,0.000000,,2013-11-21 11:33:00,
2013-11-21 04:43:00,25.0,24.0,-100.00,SE,142,3.0,6.0,96,0.00,,,0.07,0.000000,,2013-11-21 11:43:00,
2013-11-21 04:52:00,25.0,24.0,-100.00,SE,142,3.0,6.0,96,0.00,,,0.07,0.000000,,2013-11-21 11:52:00,
2013-11-21 05:22:00,25.0,24.0,-100.00,SSW,209,2.0,6.0,96,0.00,,,0.07,0.000000,,2013-11-21 12:22:00,
2013-11-21 05:32:00,25.0,24.0,-100.00,SSW,209,2.0,6.0,96,0.00,,,0.07,0.000000,,2013-11-21 12:32:00,
2013-11-21 05:42:00,25.0,24.0,-100.00,SSW,209,2.0,6.0,96,0.00,,,0.07,0.000000,,2013-11-21 12:42:00,
2013-11-21 05:52:00,25.0,24.0,-100.00,SSW,209,2.0,6.0,96,0.00,,,0.07,0.000000,,2013-11-21 12:52:00,
2013-11-21 06:22:00,25.0,24.0,-100.00,SSW,204,1.0,3.0,96,0.00,,,0.07,0.000000,,2013-11-21 13:22:00,
2013-11-21 06:32:00,25.0,24.0,-100.00,SSW,204,1.0,3.0,96,0.00,,,0.07,0.000000,,2013-11-21 13:32:00,
2013-11-21 06:42:00,25.0,24.0,-100.00,SSW,204,1.0,3.0,96,0.00,,,0.07,0.000000,,2013-11-21 13:42:00,
2013-11-21 06:52:00,25.0,24.0,-100.00,SSW,204,1.0,3.0,96,0.00,,,0.07,0.000000,,2013-11-21 13:52:00,
2013-11-21 07:22:00,25.0,24.0,-100.00,SW,233,2.0,4.0,95,0.00,,,0.07,0.000000,,2013-11-21 14:22:00,
2013-11-21 07:32:00,25.0,24.0,-100.00,SW,233,2.0,4.0,95,0.00,,,0.07,0.000000,,2013-11-21 14:32:00,
2013-11-21 07:42:00,25.0,24.0,-100.00,SW,233,2.0,4.0,95,0.00,,,0.07,0.000000,,2013-11-21 14:42:00,
2013-11-21 07:52:00,25.0,24.0,-100.00,SW,233,2.0,4.0,95,0.00,,,0.07,0.000000,,2013-11-21 14:52:00,
2013-11-21 08:22:00,26.0,25.0,-100.00,South,177,2.0,5.0,95,0.00,,,0.07,5.000000,,2013-11-21 15:22:00,
2013-11-21 08:33:00,26.0,25.0,-100.00,South,177,2.0,5.0,95,0.00,,,0.07,5.000000,,2013-11-21 15:33:00,
2013-11-21 08:43:00,26.0,25.0,-100.00,South,177,2.0,5.0,95,0.00,,,0.07,5.000000,,2013-11-21 15:43:00,
2013-11-21 08:53:00,26.0,25.0,-100.00,South,177,2.0,5.0,95,0.00,,,0.07,5.000000,,2013-11-21 15:53:00,
2013-11-21 09:24:00,27.0,26.0,-100.00,SSE,158,4.0,6.0,94,0.00,,,0.07,20.000000,,2013-11-21 16:24:00,
2013-11-21 09:33:00,27.0,26.0,-100.00,SSE,158,4.0,6.0,94,0.00,,,0.07,20.000000,,2013-11-21 16:33:00,
2013-11-21 09:42:00,27.0,26.0,-100.00,SSE,158,4.0,6.0,94,0.00,,,0.07,20.000000,,2013-11-21 16:42:00,
2013-11-21 09:53:00,27.0,26.0,-100.00,SSE,158,4.0,6.0,94,0.00,,,0.07,20.000000,,2013-11-21 16:53:00,
2013-11-21 10:22:00,31.0,27.0,-100.00,SE,137,3.0,10.0,84,0.00,,,0.02,41.000000,,2013-11-21 17:22:00,
2013-11-21 10:33:00,31.0,27.0,-100.00,SE,137,3.0,10.0,84,0.00,,,0.02,41.000000,,2013-11-21 17:33:00,
2013-11-21 10:42:00,31.0,27.0,-100.00,SE,137,3.0,10.0,84,0.00,,,0.02,41.000000,,2013-11-21 17:42:00,
2013-11-21 10:52:00,31.0,27.0,-100.00,SE,137,3.0,10.0,84,0.00,,,0.02,41.000000,,2013-11-21 17:52:00,
2013-11-21 11:22:00,34.0,25.0,-100.00,SSW,206,6.0,13.0,68,0.08,,,0.08,240.000000,,2013-11-21 18:22:00,
2013-11-21 11:32:00,34.0,25.0,-100.00,SSW,206,6.0,13.0,68,0.08,,,0.08,240.000000,,2013-11-21 18:32:00,
2013-11-21 11:42:00,34.0,25.0,-100.00,SSW,206,6.0,13.0,68,0.08,,,0.08,240.000000,,2013-11-21 18:42:00,
2013-11-21 11:52:00,34.0,25.0,-100.00,SSW,206,6.0,13.0,68,0.08,,,0.08,240.000000,,2013-11-21 18:52:00,
2013-11-21 12:22:00,35.0,24.0,-100.00,SW,221,5.0,14.0,64,0.03,,,0.11,553.000000,,2013-11-21 19:22:00,
2013-11-21 12:32:00,35.0,24.0,-100.00,SW,221,5.0,14.0,64,0.03,,,0.11,553.000000,,2013-11-21 19:32:00,
2013-11-21 12:42:00,35.0,24.0,-100.00,SW,221,5.0,14.0,64,0.03,,,0.11,553.000000,,2013-11-21 19:42:00,
2013-11-21 12:52:00,35.0,24.0,-100.00,SW,221,5.0,14.0,64,0.03,,,0.11,553.000000,,2013-11-21 19:52:00,
2013-11-21 13:22:00,29.0,26.0,-100.00,SSW,213,3.0,18.0,88,0.00,,,0.11,280.000000,,2013-11-21 20:22:00,
2013-11-21 13:32:00,29.0,26.0,-100.00,SSW,213,3.0,18.0,88,0.00,,,0.11,280.000000,,2013-11-21 20:32:00,
2013-11-21 13:42:00,29.0,26.0,-100.00,SSW,213,3.0,18.0,88,0.00,,,0.11,280.000000,,2013-11-21 20:42:00,
2013-11-21 13:52:00,29.0,26.0,-100.00,SSW,213,3.0,18.0,88,0.00,,,0.11,280.000000,,2013-11-21 20:52:00,
2013-11-21 14:22:00,31.0,27.0,-100.00,SSE,158,2.0,12.0,86,0.00,,,0.11,139.000000,,2013-11-21 21:22:00,
2013-11-21 14:34:00,31.0,27.0,-100.00,SSE,158,2.0,12.0,86,0.00,,,0.11,139.000000,,2013-11-21 21:34:00,
2013-11-21 14:43:00,31.0,27.0,-100.00,SSE,158,2.0,12.0,86,0.00,,,0.11,139.000000,,2013-11-21 21:43:00,
2013-11-21 14:54:00,31.0,27.0,-100.00,SSE,158,2.0,12.0,86,0.00,,,0.11,139.000000,,2013-11-21 21:54:00,
2013-11-21 15:23:00,32.0,26.0,-100.00,WSW,255,4.0,9.0,78,0.03,,,0.14,102.000000,,2013-11-21 22:23:00,
2013-11-21 15:33:00,32.0,26.0,-100.00,WSW,255,4.0,9.0,78,0.03,,,0.14,102.000000,,2013-11-21 22:33:00,
2013-11-21 15:43:00,32.0,26.0,-100.00,WSW,255,4.0,9.0,78,0.03,,,0.14,102.000000,,2013-11-21 22:43:00,
2013-11-21 15:53:00,32.0,26.0,-100.00,WSW,255,4.0,9.0,78,0.03,,,0.14,102.000000,,2013-11-21 22:53:00,
2013-11-21 16:22:00,28.0,25.0,-100.00,NNW,345,3.0,9.0,87,0.02,,,0.16,43.000000,,2013-11-21 23:22:00,
2013-11-21 16:33:00,28.0,25.0,-100.00,NNW,345,3.0,9.0,87,0.02,,,0.16,43.000000,,2013-11-21 23:33:00,
2013-11-21 16:42:00,28.0,25.0,-100.00,NNW,345,3.0,9.0,87,0.02,,,0.16,43.000000,,2013-11-21 23:42:00,
2013-11-21 16:53:00,28.0,25.0,-100.00,NNW,345,3.0,9.0,87,0.02,,,0.16,43.000000,,2013-11-21 23:53:00,
2013-11-21 17:22:00,26.0,23.0,-100.00,SW,218,4.0,6.0,90,0.00,,,0.16,10.000000,,2013-11-22 00:22:00,
2013-11-21 17:32:00,26.0,23.0,-100.00,SW,218,4.0,6.0,90,0.00,,,0.16,10.000000,,2013-11-22 00:32:00,
2013-11-21 17:42:00,26.0,23.0,-100.00,SW,218,4.0,6.0,90,0.00,,,0.16,10.000000,,2013-11-22 00:42:00,
2013-11-21 17:52:00,26.0,23.0,-100.00,SW,218,4.0,6.0,90,0.00,,,0.16,10.000000,,2013-11-22 00:52:00,
2013-11-21 18:22:00,24.0,22.0,-100.00,WSW,241,3.0,6.0,91,0.00,,,0.16,0.000000,,2013-11-22 01:22:00,
2013-11-21 18:32:00,24.0,22.0,-100.00,WSW,241,3.0,6.0,91,0.00,,,0.16,0.000000,,2013-11-22 01:32:00,
2013-11-21 18:42:00,24.0,22.0,-100.00,WSW,241,3.0,6.0,91,0.00,,,0.16,0.000000,,2013-11-22 01:42:00,
2013-11-21 18:52:00,24.0,22.0,-100.00,WSW,241,3.0,6.0,91,0.00,,,0.16,0.000000,,2013-11-22 01:52:00,
2013-11-21 19:21:00,25.0,22.0,-100.00,SW,219,2.0,5.0,89,0.00,,,0.16,0.000000,,2013-11-22 02:21:00,
2013-11-21 19:32:00,25.0,22.0,-100.00,SW,219,2.0,5.0,89,0.00,,,0.16,0.000000,,2013-11-22 02:32:00,
2013-11-21 19:42:00,25.0,22.0,-100.00,SW,219,2.0,5.0,89,0.00,,,0.16,0.000000,,2013-11-22 02:42:00,
2013-11-21 19:53:00,25.0,22.0,-100.00,SW,219,2.0,5.0,89,0.00,,,0.16,0.000000,,2013-11-22 02:53:00,
2013-11-21 20:22:00,25.0,22.0,-100.00,WSW,237,3.0,4.0,87,0.00,,,0.16,0.000000,,2013-11-22 03:22:00,
2013-11-21 20:33:00,25.0,22.0,-100.00,WSW,237,3.0,4.0,87,0.00,,,0.16,0.000000,,2013-11-22 03:33:00,
2013-11-21 20:43:00,25.0,22.0,-100.00,WSW,237,3.0,4.0,87,0.00,,,0.16,0.000000,,2013-11-22 03:43:00,
2013-11-21 20:54:00,25.0,22.0,-100.00,WSW,237,3.0,4.0,87,0.00,,,0.16,0.000000,,2013-11-22 03:54:00,
2013-11-21 21:23:00,23.0,21.0,-100.00,East,97,2.0,5.0,93,0.00,,,0.16,0.000000,,2013-11-22 04:23:00,
2013-11-21 21:33:00,23.0,21.0,-100.00,East,97,2.0,5.0,93,0.00,,,0.16,0.000000,,2013-11-22 04:33:00,
2013-11-21 21:43:00,23.0,21.0,-100.00,East,97,2.0,5.0,93,0.00,,,0.16,0.000000,,2013-11-22 04:43:00,
2013-11-21 21:52:00,23.0,21.0,-100.00,East,97,2.0,5.0,93,0.00,,,0.16,0.000000,,2013-11-22 04:52:00,
2013-11-21 22:22:00,24.0,23.0,-100.00,West,265,1.0,5.0,94,0.00,,,0.16,0.000000,,2013-11-22 05:22:00,
2013-11-21 22:32:00,24.0,23.0,-100.00,West,265,1.0,5.0,94,0.00,,,0.16,0.000000,,2013-11-22 05:32:00,
2013-11-21 22:43:00,24.0,23.0,-100.00,West,265,1.0,5.0,94,0.00,,,0.16,0.000000,,2013-11-22 05:43:00,
2013-11-21 22:52:00,24.0,23.0,-100.00,West,265,1.0,5.0,94,0.00,,,0.16,0.000000,,2013-11-22 05:52:00,
2013-11-21 23:21:00,24.0,22.0,-100.00,WNW,291,2.0,5.0,92,0.00,,,0.16,0.000000,,2013-11-22 06:21:00,
2013-11-21 23:32:00,24.0,22.0,-100.00,WNW,291,2.0,5.0,92,0.00,,,0.16,0.000000,,2013-11-22 06:32:00,
2013-11-21 23:42:00,24.0,22.0,-100.00,WNW,291,2.0,5.0,92,0.00,,,0.16,0.000000,,2013-11-22 06:42:00,
2013-11-21 23:52:00,24.0,22.0,-100.00,WNW,291,2.0,5.0,92,0.00,,,0.16,0.000000,,2013-11-22 06:52:00,